Time,TemperatureF,DewpointF,PressureIn,WindDirection,WindDirectionDegrees,WindSpeedMPH,WindSpeedGustMPH,Humidity,HourlyPrecipIn,Conditions,Clouds,dailyrainin,SoftwareType,DateUTC
2013-08-26 00:00:00,67.3,62.0,30.24,North,0,0.0,0.0,83,0.00,,,0.00,WUHU216HW,2013-08-26 04:00:00,
2013-08-26 00:01:00,67.3,62.0,30.24,North,0,0.0,0.0,83,0.00,,,0.00,WUHU216HW,2013-08-26 04:01:00,
2013-08-26 00:06:00,67.1,61.8,30.24,North,0,0.0,0.0,83,0.00,,,0.00,WUHU216HW,2013-08-26 04:06:00,
2013-08-26 00:11:00,67.0,61.7,30.23,North,0,0.0,0.0,83,0.00,,,0.00,WUHU216HW,2013-08-26 04:11:00,
2013-08-26 00:16:00,66.8,61.5,30.23,North,0,0.0,0.0,83,0.00,,,0.00,WUHU216HW,2013-08-26 04:16:00,
2013-08-26 00:21:00,66.6,61.6,30.23,North,0,0.0,0.0,84,0.00,,,0.00,WUHU216HW,2013-08-26 04:21:00,
2013-08-26 00:26:00,66.2,61.2,30.23,North,0,0.0,0.0,84,0.00,,,0.00,WUHU216HW,2013-08-26 04:26:00,
2013-08-26 00:31:00,65.9,60.9,30.23,North,0,0.0,0.0,84,0.00,,,0.00,WUHU216HW,2013-08-26 04:31:00,
2013-08-26 00:36:00,65.5,60.8,30.23,North,0,0.0,0.0,85,0.00,,,0.00,WUHU216HW,2013-08-26 04:36:00,
2013-08-26 00:41:00,65.3,60.8,30.22,North,0,0.0,0.0,85,0.00,,,0.00,WUHU216HW,2013-08-26 04:41:00,
2013-08-26 00:46:00,65.2,60.6,30.22,North,0,0.0,0.0,85,0.00,,,0.00,WUHU216HW,2013-08-26 04:46:00,
2013-08-26 00:51:00,65.2,60.8,30.23,North,0,0.0,0.0,86,0.00,,,0.00,WUHU216HW,2013-08-26 04:51:00,
2013-08-26 00:56:00,65.2,60.8,30.23,North,0,0.0,0.0,86,0.00,,,0.00,WUHU216HW,2013-08-26 04:56:00,
2013-08-26 01:01:00,65.2,60.6,30.23,North,0,0.0,0.0,85,0.00,,,0.00,WUHU216HW,2013-08-26 05:01:00,
2013-08-26 01:06:00,64.8,60.2,30.23,North,0,0.0,0.0,85,0.00,,,0.00,WUHU216HW,2013-08-26 05:06:00,
2013-08-26 01:11:00,64.8,60.6,30.23,North,0,0.0,0.0,86,0.00,,,0.00,WUHU216HW,2013-08-26 05:11:00,
2013-08-26 01:16:00,64.8,60.6,30.22,North,0,0.0,0.0,86,0.00,,,0.00,WUHU216HW,2013-08-26 05:16:00,
2013-08-26 01:21:00,64.4,60.2,30.22,North,0,0.0,0.0,86,0.00,,,0.00,WUHU216HW,2013-08-26 05:21:00,
2013-08-26 01:26:00,64.4,60.2,30.22,North,0,0.0,0.0,86,0.00,,,0.00,WUHU216HW,2013-08-26 05:26:00,
2013-08-26 01:31:00,64.4,60.2,30.22,North,0,0.0,0.0,86,0.00,,,0.00,WUHU216HW,2013-08-26 05:31:00,
2013-08-26 01:36:00,64.4,60.6,30.22,North,0,0.0,0.0,87,0.00,,,0.00,WUHU216HW,2013-08-26 05:36:00,
2013-08-26 01:41:00,64.4,60.6,30.22,North,0,0.0,0.0,87,0.00,,,0.00,WUHU216HW,2013-08-26 05:41:00,
2013-08-26 01:46:00,64.3,60.4,30.22,North,0,0.0,0.0,87,0.00,,,0.00,WUHU216HW,2013-08-26 05:46:00,
2013-08-26 01:51:00,64.1,60.2,30.22,North,0,0.0,0.0,87,0.00,,,0.00,WUHU216HW,2013-08-26 05:51:00,
2013-08-26 01:56:00,64.1,60.2,30.22,North,0,0.0,0.0,87,0.00,,,0.00,WUHU216HW,2013-08-26 05:56:00,
2013-08-26 02:01:00,64.3,60.7,30.21,North,0,0.0,0.0,88,0.00,,,0.00,WUHU216HW,2013-08-26 06:01:00,
2013-08-26 02:06:00,64.1,60.5,30.21,North,0,0.0,0.0,88,0.00,,,0.00,WUHU216HW,2013-08-26 06:06:00,
2013-08-26 02:11:00,64.3,60.4,30.21,North,0,0.0,0.0,87,0.00,,,0.00,WUHU216HW,2013-08-26 06:11:00,
2013-08-26 02:16:00,64.1,60.5,30.21,North,0,0.0,0.0,88,0.00,,,0.00,WUHU216HW,2013-08-26 06:16:00,
2013-08-26 02:21:00,63.7,60.1,30.20,North,0,0.0,0.0,88,0.00,,,0.00,WUHU216HW,2013-08-26 06:21:00,
2013-08-26 02:26:00,63.5,59.9,30.20,North,0,0.0,0.0,88,0.00,,,0.00,WUHU216HW,2013-08-26 06:26:00,
2013-08-26 02:31:00,63.2,59.6,30.20,North,0,0.0,0.0,88,0.00,,,0.00,WUHU216HW,2013-08-26 06:31:00,
2013-08-26 02:36:00,63.0,59.4,30.20,North,0,0.0,0.0,88,0.00,,,0.00,WUHU216HW,2013-08-26 06:36:00,
2013-08-26 02:41:00,63.0,59.8,30.20,North,0,0.0,0.0,89,0.00,,,0.00,WUHU216HW,2013-08-26 06:41:00,
2013-08-26 02:46:00,63.2,59.9,30.20,North,0,0.0,0.0,89,0.00,,,0.00,WUHU216HW,2013-08-26 06:46:00,
2013-08-26 02:51:00,63.2,59.9,30.19,North,0,0.0,0.0,89,0.00,,,0.00,WUHU216HW,2013-08-26 06:51:00,
2013-08-26 02:56:00,63.4,60.1,30.20,North,0,0.0,0.0,89,0.00,,,0.00,WUHU216HW,2013-08-26 06:56:00,
2013-08-26 03:01:00,63.5,60.3,30.19,North,0,0.0,0.0,89,0.00,,,0.00,WUHU216HW,2013-08-26 07:01:00,
2013-08-26 03:06:00,63.5,59.9,30.20,North,0,0.0,0.0,88,0.00,,,0.00,WUHU216HW,2013-08-26 07:06:00,
2013-08-26 03:11:00,63.4,59.8,30.20,North,0,0.0,0.0,88,0.00,,,0.00,WUHU216HW,2013-08-26 07:11:00,
2013-08-26 03:16:00,63.4,60.1,30.20,North,0,0.0,0.0,89,0.00,,,0.00,WUHU216HW,2013-08-26 07:16:00,
2013-08-26 03:21:00,63.5,59.9,30.19,North,0,0.0,0.0,88,0.00,,,0.00,WUHU216HW,2013-08-26 07:21:00,
2013-08-26 03:26:00,63.4,59.8,30.20,North,0,0.0,0.0,88,0.00,,,0.00,WUHU216HW,2013-08-26 07:26:00,
2013-08-26 03:31:00,63.4,59.8,30.20,North,0,0.0,0.0,88,0.00,,,0.00,WUHU216HW,2013-08-26 07:31:00,
2013-08-26 03:36:00,63.0,59.8,30.20,North,0,0.0,0.0,89,0.00,,,0.00,WUHU216HW,2013-08-26 07:36:00,
2013-08-26 03:41:00,63.0,59.4,30.19,North,0,0.0,0.0,88,0.00,,,0.00,WUHU216HW,2013-08-26 07:41:00,
2013-08-26 03:46:00,62.8,59.2,30.20,North,0,0.0,0.0,88,0.00,,,0.00,WUHU216HW,2013-08-26 07:46:00,
2013-08-26 03:51:00,62.8,59.6,30.19,North,0,0.0,0.0,89,0.00,,,0.00,WUHU216HW,2013-08-26 07:51:00,
2013-08-26 03:56:00,62.8,59.6,30.19,North,0,0.0,0.0,89,0.00,,,0.00,WUHU216HW,2013-08-26 07:56:00,
2013-08-26 04:01:00,62.6,59.4,30.19,North,0,0.0,0.0,89,0.00,,,0.00,WUHU216HW,2013-08-26 08:01:00,
2013-08-26 04:06:00,62.3,59.0,30.19,North,0,0.0,0.0,89,0.00,,,0.00,WUHU216HW,2013-08-26 08:06:00,
2013-08-26 04:11:00,62.3,59.0,30.19,North,0,0.0,0.0,89,0.00,,,0.00,WUHU216HW,2013-08-26 08:11:00,
2013-08-26 04:16:00,62.1,58.9,30.19,North,0,0.0,0.0,89,0.00,,,0.00,WUHU216HW,2013-08-26 08:16:00,
2013-08-26 04:21:00,62.1,58.9,30.19,North,0,0.0,0.0,89,0.00,,,0.00,WUHU216HW,2013-08-26 08:21:00,
2013-08-26 04:26:00,61.9,58.7,30.19,North,0,0.0,0.0,89,0.00,,,0.00,WUHU216HW,2013-08-26 08:26:00,
2013-08-26 04:31:00,62.1,59.2,30.19,North,0,0.0,0.0,90,0.00,,,0.00,WUHU216HW,2013-08-26 08:31:00,
2013-08-26 04:36:00,62.1,58.9,30.19,North,0,0.0,0.0,89,0.00,,,0.00,WUHU216HW,2013-08-26 08:36:00,
2013-08-26 04:41:00,62.1,58.9,30.19,North,0,0.0,0.0,89,0.00,,,0.00,WUHU216HW,2013-08-26 08:41:00,
2013-08-26 04:46:00,62.1,58.9,30.19,North,0,0.0,0.0,89,0.00,,,0.00,WUHU216HW,2013-08-26 08:46:00,
2013-08-26 04:51:00,61.7,58.5,30.19,North,0,0.0,0.0,89,0.00,,,0.00,WUHU216HW,2013-08-26 08:51:00,
2013-08-26 04:56:00,61.6,58.3,30.19,North,0,0.0,0.0,89,0.00,,,0.00,WUHU216HW,2013-08-26 08:56:00,
2013-08-26 05:01:00,61.6,58.3,30.19,North,0,0.0,0.0,89,0.00,,,0.00,WUHU216HW,2013-08-26 09:01:00,
2013-08-26 05:06:00,61.6,58.3,30.19,North,0,0.0,0.0,89,0.00,,,0.00,WUHU216HW,2013-08-26 09:06:00,
2013-08-26 05:11:00,61.6,58.3,30.19,North,0,0.0,0.0,89,0.00,,,0.00,WUHU216HW,2013-08-26 09:11:00,
2013-08-26 05:16:00,61.6,58.3,30.19,North,0,0.0,0.0,89,0.00,,,0.00,WUHU216HW,2013-08-26 09:16:00,
2013-08-26 05:21:00,61.6,58.3,30.19,North,0,0.0,0.0,89,0.00,,,0.00,WUHU216HW,2013-08-26 09:21:00,
2013-08-26 05:26:00,61.6,58.3,30.19,North,0,0.0,0.0,89,0.00,,,0.00,WUHU216HW,2013-08-26 09:26:00,
2013-08-26 05:31:00,61.4,58.1,30.19,North,0,0.0,0.0,89,0.00,,,0.00,WUHU216HW,2013-08-26 09:31:00,
2013-08-26 05:36:00,61.4,58.1,30.19,North,0,0.0,0.0,89,0.00,,,0.00,WUHU216HW,2013-08-26 09:36:00,
2013-08-26 05:41:00,61.2,58.0,30.19,North,0,0.0,0.0,89,0.00,,,0.00,WUHU216HW,2013-08-26 09:41:00,
2013-08-26 05:46:00,61.4,58.5,30.19,North,0,0.0,0.0,90,0.00,,,0.00,WUHU216HW,2013-08-26 09:46:00,
2013-08-26 05:51:00,61.4,58.5,30.19,North,0,0.0,0.0,90,0.00,,,0.00,WUHU216HW,2013-08-26 09:51:00,
2013-08-26 05:56:00,61.4,58.1,30.19,North,0,0.0,0.0,89,0.00,,,0.00,WUHU216HW,2013-08-26 09:56:00,
2013-08-26 06:01:00,61.4,58.1,30.19,North,0,0.0,0.0,89,0.00,,,0.00,WUHU216HW,2013-08-26 10:01:00,
2013-08-26 06:06:00,61.2,58.0,30.19,North,0,0.0,0.0,89,0.00,,,0.00,WUHU216HW,2013-08-26 10:06:00,
2013-08-26 06:11:00,61.2,58.0,30.19,North,0,0.0,0.0,89,0.00,,,0.00,WUHU216HW,2013-08-26 10:11:00,
2013-08-26 06:16:00,60.8,58.0,30.19,North,0,0.0,0.0,90,0.00,,,0.00,WUHU216HW,2013-08-26 10:16:00,
2013-08-26 06:21:00,60.8,58.0,30.19,North,0,0.0,0.0,90,0.00,,,0.00,WUHU216HW,2013-08-26 10:21:00,
2013-08-26 06:26:00,60.7,57.8,30.19,North,0,0.0,0.0,90,0.00,,,0.00,WUHU216HW,2013-08-26 10:26:00,
2013-08-26 06:31:00,60.5,57.6,30.19,North,0,0.0,0.0,90,0.00,,,0.00,WUHU216HW,2013-08-26 10:31:00,
2013-08-26 06:36:00,60.5,57.6,30.19,North,0,0.0,0.0,90,0.00,,,0.00,WUHU216HW,2013-08-26 10:36:00,
2013-08-26 06:41:00,60.5,57.6,30.19,North,0,0.0,0.0,90,0.00,,,0.00,WUHU216HW,2013-08-26 10:41:00,
2013-08-26 06:46:00,60.5,57.6,30.20,North,0,0.0,0.0,90,0.00,,,0.00,WUHU216HW,2013-08-26 10:46:00,
2013-08-26 06:51:00,60.5,57.6,30.19,North,0,0.0,0.0,90,0.00,,,0.00,WUHU216HW,2013-08-26 10:51:00,
2013-08-26 06:56:00,60.5,57.6,30.19,North,0,0.0,0.0,90,0.00,,,0.00,WUHU216HW,2013-08-26 10:56:00,
2013-08-26 07:01:00,60.7,57.8,30.19,North,0,0.0,0.0,90,0.00,,,0.00,WUHU216HW,2013-08-26 11:01:00,
2013-08-26 07:06:00,60.7,57.8,30.19,North,0,0.0,0.0,90,0.00,,,0.00,WUHU216HW,2013-08-26 11:06:00,
2013-08-26 07:11:00,60.7,57.8,30.20,North,0,0.0,0.0,90,0.00,,,0.00,WUHU216HW,2013-08-26 11:11:00,
2013-08-26 07:16:00,60.7,57.8,30.19,North,0,0.0,0.0,90,0.00,,,0.00,WUHU216HW,2013-08-26 11:16:00,
2013-08-26 07:21:00,60.5,57.6,30.20,North,0,0.0,0.0,90,0.00,,,0.00,WUHU216HW,2013-08-26 11:21:00,
2013-08-26 07:26:00,60.5,57.6,30.20,North,0,0.0,0.0,90,0.00,,,0.00,WUHU216HW,2013-08-26 11:26:00,
2013-08-26 07:31:00,60.5,57.6,30.20,North,0,0.0,0.0,90,0.00,,,0.00,WUHU216HW,2013-08-26 11:31:00,
2013-08-26 07:36:00,60.5,57.6,30.20,North,0,0.0,0.0,90,0.00,,,0.00,WUHU216HW,2013-08-26 11:36:00,
2013-08-26 07:41:00,60.3,57.4,30.20,North,0,0.0,0.0,90,0.00,,,0.00,WUHU216HW,2013-08-26 11:41:00,
2013-08-26 07:46:00,60.3,57.4,30.21,North,0,0.0,0.0,90,0.00,,,0.00,WUHU216HW,2013-08-26 11:46:00,
2013-08-26 07:51:00,60.5,57.6,30.22,North,0,0.0,0.0,90,0.00,,,0.00,WUHU216HW,2013-08-26 11:51:00,
2013-08-26 07:56:00,60.5,57.6,30.21,North,0,0.0,0.0,90,0.00,,,0.00,WUHU216HW,2013-08-26 11:56:00,
2013-08-26 08:01:00,60.5,57.6,30.21,North,0,0.0,0.0,90,0.00,,,0.00,WUHU216HW,2013-08-26 12:01:00,
2013-08-26 08:06:00,60.5,57.9,30.21,North,0,0.0,0.0,91,0.00,,,0.00,WUHU216HW,2013-08-26 12:06:00,
2013-08-26 08:11:00,60.5,57.9,30.22,North,0,0.0,0.0,91,0.00,,,0.00,WUHU216HW,2013-08-26 12:11:00,
2013-08-26 08:16:00,60.7,58.1,30.22,North,0,0.0,0.0,91,0.00,,,0.00,WUHU216HW,2013-08-26 12:16:00,
2013-08-26 08:21:00,60.7,58.1,30.22,North,0,0.0,0.0,91,0.00,,,0.00,WUHU216HW,2013-08-26 12:21:00,
2013-08-26 08:26:00,60.8,58.2,30.22,North,0,0.0,0.0,91,0.00,,,0.00,WUHU216HW,2013-08-26 12:26:00,
2013-08-26 08:31:00,60.8,58.2,30.22,North,0,0.0,0.0,91,0.00,,,0.00,WUHU216HW,2013-08-26 12:31:00,
2013-08-26 08:36:00,61.0,58.4,30.21,North,0,0.0,0.0,91,0.00,,,0.00,WUHU216HW,2013-08-26 12:36:00,
2013-08-26 08:41:00,61.2,58.6,30.22,North,0,0.0,0.0,91,0.00,,,0.00,WUHU216HW,2013-08-26 12:41:00,
2013-08-26 08:47:00,61.4,58.8,30.22,North,0,0.0,0.0,91,0.00,,,0.00,WUHU216HW,2013-08-26 12:47:00,
2013-08-26 08:52:00,61.6,59.0,30.22,North,0,0.0,0.0,91,0.00,,,0.00,WUHU216HW,2013-08-26 12:52:00,
2013-08-26 08:57:00,61.7,59.1,30.22,North,0,0.0,0.0,91,0.00,,,0.00,WUHU216HW,2013-08-26 12:57:00,
2013-08-26 09:02:00,62.1,59.8,30.22,North,0,0.0,0.0,92,0.00,,,0.00,WUHU216HW,2013-08-26 13:02:00,
2013-08-26 09:07:00,62.5,60.1,30.22,North,0,0.0,0.0,92,0.00,,,0.00,WUHU216HW,2013-08-26 13:07:00,
2013-08-26 09:12:00,62.8,60.5,30.22,North,0,0.0,0.0,92,0.00,,,0.00,WUHU216HW,2013-08-26 13:12:00,
2013-08-26 09:17:00,63.2,60.8,30.22,North,0,0.0,0.0,92,0.00,,,0.00,WUHU216HW,2013-08-26 13:17:00,
2013-08-26 09:22:00,63.7,61.4,30.22,North,0,0.0,0.0,92,0.00,,,0.00,WUHU216HW,2013-08-26 13:22:00,
2013-08-26 09:27:00,64.1,61.7,30.22,North,0,0.0,0.0,92,0.00,,,0.00,WUHU216HW,2013-08-26 13:27:00,
2013-08-26 09:32:00,64.6,62.3,30.22,North,0,0.0,0.0,92,0.00,,,0.00,WUHU216HW,2013-08-26 13:32:00,
2013-08-26 09:37:00,65.2,62.8,30.22,North,0,0.0,0.0,92,0.00,,,0.00,WUHU216HW,2013-08-26 13:37:00,
2013-08-26 09:42:00,65.7,63.3,30.22,North,0,0.0,0.0,92,0.00,,,0.00,WUHU216HW,2013-08-26 13:42:00,
2013-08-26 09:47:00,65.9,63.2,30.22,North,0,0.0,0.0,91,0.00,,,0.00,WUHU216HW,2013-08-26 13:47:00,
2013-08-26 09:52:00,66.1,63.4,30.22,North,0,0.0,0.0,91,0.00,,,0.00,WUHU216HW,2013-08-26 13:52:00,
2013-08-26 09:57:00,66.6,63.8,30.22,North,0,0.0,0.0,91,0.00,,,0.00,WUHU216HW,2013-08-26 13:57:00,
2013-08-26 10:02:00,67.0,63.9,30.22,North,0,0.0,0.0,90,0.00,,,0.00,WUHU216HW,2013-08-26 14:02:00,
2013-08-26 10:07:00,67.1,63.7,30.22,North,0,0.0,0.0,89,0.00,,,0.00,WUHU216HW,2013-08-26 14:07:00,
2013-08-26 10:12:00,67.3,63.9,30.22,North,0,0.0,0.0,89,0.00,,,0.00,WUHU216HW,2013-08-26 14:12:00,
2013-08-26 10:17:00,67.7,64.0,30.22,North,0,0.0,0.0,88,0.00,,,0.00,WUHU216HW,2013-08-26 14:17:00,
2013-08-26 10:22:00,68.0,63.7,30.22,North,0,0.0,0.0,86,0.00,,,0.00,WUHU216HW,2013-08-26 14:22:00,
2013-08-26 10:27:00,68.6,63.5,30.22,North,0,0.0,0.0,84,0.00,,,0.00,WUHU216HW,2013-08-26 14:27:00,
2013-08-26 10:32:00,69.1,63.7,30.22,North,0,0.0,0.0,83,0.00,,,0.00,WUHU216HW,2013-08-26 14:32:00,
2013-08-26 10:37:00,69.7,64.3,30.22,North,0,0.0,0.0,83,0.00,,,0.00,WUHU216HW,2013-08-26 14:37:00,
2013-08-26 10:42:00,70.2,64.1,30.22,North,0,0.0,0.0,81,0.00,,,0.00,WUHU216HW,2013-08-26 14:42:00,
2013-08-26 10:47:00,70.6,62.6,30.22,North,0,0.0,0.0,76,0.00,,,0.00,WUHU216HW,2013-08-26 14:47:00,
2013-08-26 10:52:00,71.3,61.4,30.22,North,0,0.0,0.0,71,0.00,,,0.00,WUHU216HW,2013-08-26 14:52:00,
2013-08-26 10:57:00,71.6,63.3,30.22,North,0,0.0,0.0,75,0.00,,,0.00,WUHU216HW,2013-08-26 14:57:00,
2013-08-26 11:02:00,72.2,63.8,30.23,North,0,0.0,0.0,75,0.00,,,0.00,WUHU216HW,2013-08-26 15:02:00,
2013-08-26 11:07:00,72.7,65.1,30.23,North,0,0.0,0.0,77,0.00,,,0.00,WUHU216HW,2013-08-26 15:07:00,
2013-08-26 11:12:00,72.7,65.1,30.23,North,0,0.0,0.0,77,0.00,,,0.00,WUHU216HW,2013-08-26 15:12:00,
2013-08-26 11:17:00,73.1,65.9,30.22,North,0,0.0,0.0,78,0.00,,,0.00,WUHU216HW,2013-08-26 15:17:00,
2013-08-26 11:22:00,73.4,66.3,30.23,North,0,0.0,0.0,78,0.00,,,0.00,WUHU216HW,2013-08-26 15:22:00,
2013-08-26 11:27:00,73.4,66.3,30.22,North,0,0.0,0.0,78,0.00,,,0.00,WUHU216HW,2013-08-26 15:27:00,
2013-08-26 11:32:00,73.6,66.4,30.22,North,0,0.0,0.0,78,0.00,,,0.00,WUHU216HW,2013-08-26 15:32:00,
2013-08-26 11:37:00,73.8,66.2,30.22,North,0,0.0,0.0,77,0.00,,,0.00,WUHU216HW,2013-08-26 15:37:00,
2013-08-26 11:42:00,74.0,66.0,30.23,North,0,0.0,0.0,76,0.00,,,0.00,WUHU216HW,2013-08-26 15:42:00,
2013-08-26 11:47:00,74.3,66.3,30.23,North,0,0.0,0.0,76,0.00,,,0.00,WUHU216HW,2013-08-26 15:47:00,
2013-08-26 11:52:00,74.3,65.9,30.23,North,0,0.0,0.0,75,0.00,,,0.00,WUHU216HW,2013-08-26 15:52:00,
2013-08-26 11:57:00,74.2,65.8,30.22,North,0,0.0,0.0,75,0.00,,,0.00,WUHU216HW,2013-08-26 15:57:00,
2013-08-26 12:02:00,75.1,66.6,30.22,North,0,0.0,0.0,75,0.00,,,0.00,WUHU216HW,2013-08-26 16:02:00,
2013-08-26 12:07:00,75.2,66.4,30.22,North,0,0.0,0.0,74,0.00,,,0.00,WUHU216HW,2013-08-26 16:07:00,
2013-08-26 12:12:00,75.6,65.5,30.22,North,0,0.0,0.0,71,0.00,,,0.00,WUHU216HW,2013-08-26 16:12:00,
2013-08-26 12:17:00,75.4,66.2,30.22,North,0,0.0,0.0,73,0.00,,,0.00,WUHU216HW,2013-08-26 16:17:00,
2013-08-26 12:22:00,76.1,64.8,30.22,North,0,0.0,0.0,68,0.00,,,0.00,WUHU216HW,2013-08-26 16:22:00,
2013-08-26 12:27:00,76.3,66.2,30.22,North,0,0.0,0.0,71,0.00,,,0.00,WUHU216HW,2013-08-26 16:27:00,
2013-08-26 12:32:00,76.9,66.4,30.22,North,0,0.0,0.0,70,0.00,,,0.00,WUHU216HW,2013-08-26 16:32:00,
2013-08-26 12:37:00,76.7,66.2,30.22,North,0,0.0,0.0,70,0.00,,,0.00,WUHU216HW,2013-08-26 16:37:00,
2013-08-26 12:42:00,76.9,66.8,30.21,North,0,0.0,0.0,71,0.00,,,0.00,WUHU216HW,2013-08-26 16:42:00,
2013-08-26 12:47:00,77.0,66.6,30.21,North,0,0.0,0.0,70,0.00,,,0.00,WUHU216HW,2013-08-26 16:47:00,
2013-08-26 12:52:00,76.7,66.2,30.21,North,0,0.0,0.0,70,0.00,,,0.00,WUHU216HW,2013-08-26 16:52:00,
2013-08-26 12:57:00,76.9,66.0,30.20,North,0,0.0,0.0,69,0.00,,,0.00,WUHU216HW,2013-08-26 16:57:00,
2013-08-26 13:02:00,77.6,67.1,30.20,North,0,0.0,0.0,70,0.00,,,0.00,WUHU216HW,2013-08-26 17:02:00,
2013-08-26 13:07:00,77.6,66.6,30.20,North,0,0.0,0.0,69,0.00,,,0.00,WUHU216HW,2013-08-26 17:07:00,
2013-08-26 13:12:00,77.8,66.3,30.20,North,0,0.0,0.0,68,0.00,,,0.00,WUHU216HW,2013-08-26 17:12:00,
2013-08-26 13:17:00,77.0,67.0,30.20,North,0,0.0,0.0,71,0.00,,,0.00,WUHU216HW,2013-08-26 17:17:00,
2013-08-26 13:22:00,77.2,67.1,30.19,North,0,0.0,0.0,71,0.00,,,0.00,WUHU216HW,2013-08-26 17:22:00,
2013-08-26 13:27:00,77.4,67.3,30.19,North,0,0.0,0.0,71,0.00,,,0.00,WUHU216HW,2013-08-26 17:27:00,
2013-08-26 13:32:00,78.3,67.8,30.19,North,0,0.0,0.0,70,0.00,,,0.00,WUHU216HW,2013-08-26 17:32:00,
2013-08-26 13:37:00,78.1,68.0,30.19,North,0,0.0,0.0,71,0.00,,,0.00,WUHU216HW,2013-08-26 17:37:00,
2013-08-26 13:42:00,77.8,67.2,30.19,North,0,0.0,0.0,70,0.00,,,0.00,WUHU216HW,2013-08-26 17:42:00,
2013-08-26 13:47:00,76.7,66.6,30.19,North,0,0.0,0.0,71,0.00,,,0.00,WUHU216HW,2013-08-26 17:47:00,
2013-08-26 13:52:00,76.5,66.4,30.19,North,0,0.0,0.0,71,0.00,,,0.00,WUHU216HW,2013-08-26 17:52:00,
2013-08-26 13:57:00,76.9,66.8,30.18,North,0,0.0,0.0,71,0.00,,,0.00,WUHU216HW,2013-08-26 17:57:00,
2013-08-26 14:02:00,77.0,67.0,30.18,North,0,0.0,0.0,71,0.00,,,0.00,WUHU216HW,2013-08-26 18:02:00,
2013-08-26 14:07:00,77.4,67.0,30.18,North,0,0.0,0.0,70,0.00,,,0.00,WUHU216HW,2013-08-26 18:07:00,
2013-08-26 14:12:00,77.9,66.5,30.18,North,0,0.0,0.0,68,0.00,,,0.00,WUHU216HW,2013-08-26 18:12:00,
2013-08-26 14:17:00,78.7,67.6,30.18,North,0,0.0,0.0,69,0.00,,,0.00,WUHU216HW,2013-08-26 18:17:00,
2013-08-26 14:22:00,78.5,67.5,30.17,North,0,0.0,0.0,69,0.00,,,0.00,WUHU216HW,2013-08-26 18:22:00,
2013-08-26 14:27:00,78.3,66.4,30.17,North,0,0.0,0.0,67,0.00,,,0.00,WUHU216HW,2013-08-26 18:27:00,
2013-08-26 14:32:00,78.8,65.2,30.17,North,0,0.0,0.0,63,0.00,,,0.00,WUHU216HW,2013-08-26 18:32:00,
2013-08-26 14:37:00,79.4,65.3,30.17,North,0,0.0,0.0,62,0.00,,,0.00,WUHU216HW,2013-08-26 18:37:00,
2013-08-26 14:42:00,79.6,66.8,30.17,North,0,0.0,0.0,65,0.00,,,0.00,WUHU216HW,2013-08-26 18:42:00,
2013-08-26 14:47:00,80.3,66.1,30.17,North,0,0.0,0.0,62,0.00,,,0.00,WUHU216HW,2013-08-26 18:47:00,
2013-08-26 14:52:00,81.2,66.9,30.16,North,0,0.0,0.0,62,0.00,,,0.00,WUHU216HW,2013-08-26 18:52:00,
2013-08-26 14:57:00,81.2,65.5,30.16,North,0,0.0,0.0,59,0.00,,,0.00,WUHU216HW,2013-08-26 18:57:00,
2013-08-26 15:02:00,81.5,65.8,30.15,North,0,0.0,0.0,59,0.00,,,0.00,WUHU216HW,2013-08-26 19:02:00,
2013-08-26 15:07:00,81.4,65.6,30.15,North,0,0.0,0.0,59,0.00,,,0.00,WUHU216HW,2013-08-26 19:07:00,
2013-08-26 15:12:00,81.4,66.6,30.15,North,0,0.0,0.0,61,0.00,,,0.00,WUHU216HW,2013-08-26 19:12:00,
2013-08-26 15:17:00,80.8,64.1,30.15,North,0,0.0,0.0,57,0.00,,,0.00,WUHU216HW,2013-08-26 19:17:00,
2013-08-26 15:22:00,80.8,65.2,30.15,North,0,0.0,0.0,59,0.00,,,0.00,WUHU216HW,2013-08-26 19:22:00,
2013-08-26 15:27:00,80.1,65.1,30.14,North,0,0.0,0.0,60,0.00,,,0.00,WUHU216HW,2013-08-26 19:27:00,
2013-08-26 15:32:00,79.2,65.1,30.14,North,0,0.0,0.0,62,0.00,,,0.00,WUHU216HW,2013-08-26 19:32:00,
2013-08-26 15:37:00,78.7,64.6,30.14,North,0,0.0,0.0,62,0.00,,,0.00,WUHU216HW,2013-08-26 19:37:00,
2013-08-26 15:42:00,78.5,64.5,30.14,North,0,0.0,0.0,62,0.00,,,0.00,WUHU216HW,2013-08-26 19:42:00,
2013-08-26 15:47:00,78.3,64.7,30.14,North,0,0.0,0.0,63,0.00,,,0.00,WUHU216HW,2013-08-26 19:47:00,
2013-08-26 15:52:00,79.0,64.1,30.14,North,0,0.0,0.0,60,0.00,,,0.00,WUHU216HW,2013-08-26 19:52:00,
2013-08-26 15:57:00,79.6,64.5,30.13,North,0,0.0,0.0,60,0.00,,,0.00,WUHU216HW,2013-08-26 19:57:00,
2013-08-26 16:02:00,79.2,65.1,30.13,North,0,0.0,0.0,62,0.00,,,0.00,WUHU216HW,2013-08-26 20:02:00,
2013-08-26 16:07:00,78.8,64.4,30.13,North,0,0.0,0.0,61,0.00,,,0.00,WUHU216HW,2013-08-26 20:07:00,
2013-08-26 16:12:00,78.8,64.4,30.13,North,0,0.0,0.0,61,0.00,,,0.00,WUHU216HW,2013-08-26 20:12:00,
2013-08-26 16:17:00,78.8,63.9,30.13,North,0,0.0,0.0,60,0.00,,,0.00,WUHU216HW,2013-08-26 20:17:00,
2013-08-26 16:22:00,78.8,62.4,30.12,North,0,0.0,0.0,57,0.00,,,0.00,WUHU216HW,2013-08-26 20:22:00,
2013-08-26 16:27:00,78.7,64.2,30.12,North,0,0.0,0.0,61,0.00,,,0.00,WUHU216HW,2013-08-26 20:27:00,
2013-08-26 16:32:00,78.1,63.6,30.12,North,0,0.0,0.0,61,0.00,,,0.00,WUHU216HW,2013-08-26 20:32:00,
2013-08-26 16:37:00,78.3,63.8,30.12,North,0,0.0,0.0,61,0.00,,,0.00,WUHU216HW,2013-08-26 20:37:00,
2013-08-26 16:42:00,78.8,64.4,30.12,North,0,0.0,0.0,61,0.00,,,0.00,WUHU216HW,2013-08-26 20:42:00,
2013-08-26 16:47:00,78.7,64.6,30.12,North,0,0.0,0.0,62,0.00,,,0.00,WUHU216HW,2013-08-26 20:47:00,
2013-08-26 16:52:00,78.5,64.0,30.12,North,0,0.0,0.0,61,0.00,,,0.00,WUHU216HW,2013-08-26 20:52:00,
2013-08-26 16:57:00,78.3,63.8,30.11,North,0,0.0,0.0,61,0.00,,,0.00,WUHU216HW,2013-08-26 20:57:00,
2013-08-26 17:02:00,78.5,64.5,30.11,North,0,0.0,0.0,62,0.00,,,0.00,WUHU216HW,2013-08-26 21:02:00,
2013-08-26 17:07:00,78.5,64.5,30.11,North,0,0.0,0.0,62,0.00,,,0.00,WUHU216HW,2013-08-26 21:07:00,
2013-08-26 17:31:00,77.8,64.2,30.10,North,0,0.0,0.0,63,0.00,,,0.00,WUHU216HW,2013-08-26 21:31:00,
2013-08-26 17:36:00,77.8,62.8,30.10,North,0,0.0,0.0,60,0.00,,,0.00,WUHU216HW,2013-08-26 21:36:00,
2013-08-26 17:41:00,77.8,64.2,30.09,North,0,0.0,0.0,63,0.00,,,0.00,WUHU216HW,2013-08-26 21:41:00,
2013-08-26 17:46:00,77.2,63.6,30.09,North,0,0.0,0.0,63,0.00,,,0.00,WUHU216HW,2013-08-26 21:46:00,
2013-08-26 17:51:00,76.7,63.5,30.09,North,0,0.0,0.0,64,0.00,,,0.00,WUHU216HW,2013-08-26 21:51:00,
2013-08-26 17:56:00,76.5,63.8,30.09,North,0,0.0,0.0,65,0.00,,,0.00,WUHU216HW,2013-08-26 21:56:00,
2013-08-26 18:01:00,76.3,64.1,30.09,North,0,0.0,0.0,66,0.00,,,0.00,WUHU216HW,2013-08-26 22:01:00,
2013-08-26 18:06:00,76.1,63.9,30.09,North,0,0.0,0.0,66,0.00,,,0.00,WUHU216HW,2013-08-26 22:06:00,
2013-08-26 18:11:00,76.0,63.7,30.09,North,0,0.0,0.0,66,0.00,,,0.00,WUHU216HW,2013-08-26 22:11:00,
2013-08-26 18:16:00,75.8,64.0,30.09,North,0,0.0,0.0,67,0.00,,,0.00,WUHU216HW,2013-08-26 22:16:00,
2013-08-26 18:21:00,75.8,64.4,30.09,North,0,0.0,0.0,68,0.00,,,0.00,WUHU216HW,2013-08-26 22:21:00,
2013-08-26 18:26:00,75.6,64.3,30.09,North,0,0.0,0.0,68,0.00,,,0.00,WUHU216HW,2013-08-26 22:26:00,
2013-08-26 18:31:00,75.6,64.3,30.09,North,0,0.0,0.0,68,0.00,,,0.00,WUHU216HW,2013-08-26 22:31:00,
2013-08-26 18:36:00,75.2,64.4,30.09,North,0,0.0,0.0,69,0.00,,,0.00,WUHU216HW,2013-08-26 22:36:00,
2013-08-26 18:41:00,75.1,64.2,30.09,North,0,0.0,0.0,69,0.00,,,0.00,WUHU216HW,2013-08-26 22:41:00,
2013-08-26 18:46:00,74.7,64.4,30.09,North,0,0.0,0.0,70,0.00,,,0.00,WUHU216HW,2013-08-26 22:46:00,
2013-08-26 18:51:00,74.5,64.5,30.09,North,0,0.0,0.0,71,0.00,,,0.00,WUHU216HW,2013-08-26 22:51:00,
2013-08-26 18:56:00,74.3,64.4,30.09,North,0,0.0,0.0,71,0.00,,,0.00,WUHU216HW,2013-08-26 22:56:00,
2013-08-26 19:01:00,74.2,64.6,30.09,North,0,0.0,0.0,72,0.00,,,0.00,WUHU216HW,2013-08-26 23:01:00,
2013-08-26 19:06:00,74.0,64.1,30.08,North,0,0.0,0.0,71,0.00,,,0.00,WUHU216HW,2013-08-26 23:06:00,
2013-08-26 19:11:00,73.8,63.9,30.08,North,0,0.0,0.0,71,0.00,,,0.00,WUHU216HW,2013-08-26 23:11:00,
2013-08-26 19:16:00,73.4,63.5,30.08,North,0,0.0,0.0,71,0.00,,,0.00,WUHU216HW,2013-08-26 23:16:00,
2013-08-26 19:21:00,73.4,63.9,30.08,North,0,0.0,0.0,72,0.00,,,0.00,WUHU216HW,2013-08-26 23:21:00,
2013-08-26 19:26:00,73.3,64.2,30.08,North,0,0.0,0.0,73,0.00,,,0.00,WUHU216HW,2013-08-26 23:26:00,
2013-08-26 19:31:00,73.1,64.0,30.08,North,0,0.0,0.0,73,0.00,,,0.00,WUHU216HW,2013-08-26 23:31:00,
2013-08-26 19:36:00,72.9,64.2,30.08,North,0,0.0,0.0,74,0.00,,,0.00,WUHU216HW,2013-08-26 23:36:00,
2013-08-26 19:41:00,72.9,64.5,30.08,North,0,0.0,0.0,75,0.00,,,0.00,WUHU216HW,2013-08-26 23:41:00,
2013-08-26 19:46:00,72.7,64.4,30.08,North,0,0.0,0.0,75,0.00,,,0.00,WUHU216HW,2013-08-26 23:46:00,
2013-08-26 19:51:00,72.7,64.4,30.08,North,0,0.0,0.0,75,0.00,,,0.00,WUHU216HW,2013-08-26 23:51:00,
2013-08-26 19:56:00,72.7,64.4,30.08,North,0,0.0,0.0,75,0.00,,,0.00,WUHU216HW,2013-08-26 23:56:00,
2013-08-26 20:01:00,72.4,64.4,30.08,North,0,0.0,0.0,76,0.00,,,0.00,WUHU216HW,2013-08-27 00:01:00,
2013-08-26 20:06:00,72.2,64.2,30.08,North,0,0.0,0.0,76,0.00,,,0.00,WUHU216HW,2013-08-27 00:06:00,
2013-08-26 20:11:00,72.0,64.0,30.08,North,0,0.0,0.0,76,0.00,,,0.00,WUHU216HW,2013-08-27 00:11:00,
2013-08-26 20:16:00,72.0,64.4,30.08,North,0,0.0,0.0,77,0.00,,,0.00,WUHU216HW,2013-08-27 00:16:00,
2013-08-26 20:21:00,71.8,64.2,30.08,North,0,0.0,0.0,77,0.00,,,0.00,WUHU216HW,2013-08-27 00:21:00,
2013-08-26 20:26:00,71.6,64.0,30.07,North,0,0.0,0.0,77,0.00,,,0.00,WUHU216HW,2013-08-27 00:26:00,
2013-08-26 20:31:00,71.5,64.3,30.07,North,0,0.0,0.0,78,0.00,,,0.00,WUHU216HW,2013-08-27 00:31:00,
2013-08-26 20:36:00,71.3,64.5,30.07,North,0,0.0,0.0,79,0.00,,,0.00,WUHU216HW,2013-08-27 00:36:00,
2013-08-26 20:41:00,71.1,64.3,30.08,North,0,0.0,0.0,79,0.00,,,0.00,WUHU216HW,2013-08-27 00:41:00,
2013-08-26 20:46:00,71.1,64.6,30.07,North,0,0.0,0.0,80,0.00,,,0.00,WUHU216HW,2013-08-27 00:46:00,
2013-08-26 20:51:00,70.7,64.3,30.07,North,0,0.0,0.0,80,0.00,,,0.00,WUHU216HW,2013-08-27 00:51:00,
2013-08-26 20:56:00,70.6,64.5,30.07,North,0,0.0,0.0,81,0.00,,,0.00,WUHU216HW,2013-08-27 00:56:00,
2013-08-26 21:01:00,70.7,64.6,30.08,North,0,0.0,0.0,81,0.00,,,0.00,WUHU216HW,2013-08-27 01:01:00,
2013-08-26 21:06:00,70.6,64.5,30.08,North,0,0.0,0.0,81,0.00,,,0.00,WUHU216HW,2013-08-27 01:06:00,
2013-08-26 21:11:00,70.4,64.6,30.08,North,0,0.0,0.0,82,0.00,,,0.00,WUHU216HW,2013-08-27 01:11:00,
2013-08-26 21:16:00,70.0,64.5,30.08,North,0,0.0,0.0,83,0.00,,,0.00,WUHU216HW,2013-08-27 01:16:00,
2013-08-26 21:21:00,69.5,64.1,30.08,North,0,0.0,0.0,83,0.00,,,0.00,WUHU216HW,2013-08-27 01:21:00,
2013-08-26 21:26:00,69.3,63.9,30.08,North,0,0.0,0.0,83,0.00,,,0.00,WUHU216HW,2013-08-27 01:26:00,
2013-08-26 21:31:00,68.9,63.9,30.08,North,0,0.0,0.0,84,0.00,,,0.00,WUHU216HW,2013-08-27 01:31:00,
2013-08-26 21:36:00,68.8,63.7,30.08,North,0,0.0,0.0,84,0.00,,,0.00,WUHU216HW,2013-08-27 01:36:00,
2013-08-26 21:41:00,68.8,63.7,30.08,North,0,0.0,0.0,84,0.00,,,0.00,WUHU216HW,2013-08-27 01:41:00,
2013-08-26 21:46:00,68.6,63.9,30.08,North,0,0.0,0.0,85,0.00,,,0.00,WUHU216HW,2013-08-27 01:46:00,
2013-08-26 21:51:00,68.6,64.2,30.08,North,0,0.0,0.0,86,0.00,,,0.00,WUHU216HW,2013-08-27 01:51:00,
2013-08-26 21:56:00,68.2,63.9,30.09,North,0,0.0,0.0,86,0.00,,,0.00,WUHU216HW,2013-08-27 01:56:00,
2013-08-26 22:01:00,68.0,63.7,30.09,North,0,0.0,0.0,86,0.00,,,0.00,WUHU216HW,2013-08-27 02:01:00,
2013-08-26 22:06:00,68.2,64.2,30.09,North,0,0.0,0.0,87,0.00,,,0.00,WUHU216HW,2013-08-27 02:06:00,
2013-08-26 22:11:00,68.2,64.2,30.09,North,0,0.0,0.0,87,0.00,,,0.00,WUHU216HW,2013-08-27 02:11:00,
2013-08-26 22:16:00,68.4,64.4,30.09,North,0,0.0,0.0,87,0.00,,,0.00,WUHU216HW,2013-08-27 02:16:00,
2013-08-26 22:21:00,68.2,64.2,30.09,North,0,0.0,0.0,87,0.00,,,0.00,WUHU216HW,2013-08-27 02:21:00,
2013-08-26 22:26:00,68.2,64.2,30.09,North,0,0.0,0.0,87,0.00,,,0.00,WUHU216HW,2013-08-27 02:26:00,
2013-08-26 22:31:00,68.0,64.0,30.09,North,0,0.0,0.0,87,0.00,,,0.00,WUHU216HW,2013-08-27 02:31:00,
2013-08-26 22:36:00,68.0,64.0,30.09,North,0,0.0,0.0,87,0.00,,,0.00,WUHU216HW,2013-08-27 02:36:00,
2013-08-26 22:41:00,68.0,64.0,30.09,North,0,0.0,0.0,87,0.00,,,0.00,WUHU216HW,2013-08-27 02:41:00,
2013-08-26 22:46:00,67.9,63.8,30.09,North,0,0.0,0.0,87,0.00,,,0.00,WUHU216HW,2013-08-27 02:46:00,
2013-08-26 22:51:00,67.9,63.8,30.09,North,0,0.0,0.0,87,0.00,,,0.00,WUHU216HW,2013-08-27 02:51:00,
2013-08-26 22:56:00,67.9,63.8,30.09,North,0,0.0,0.0,87,0.00,,,0.00,WUHU216HW,2013-08-27 02:56:00,
2013-08-26 23:01:00,67.7,63.6,30.09,North,0,0.0,0.0,87,0.00,,,0.00,WUHU216HW,2013-08-27 03:01:00,
2013-08-26 23:06:00,67.7,63.6,30.09,North,0,0.0,0.0,87,0.00,,,0.00,WUHU216HW,2013-08-27 03:06:00,
2013-08-26 23:11:00,67.9,63.6,30.09,North,0,0.0,0.0,86,0.00,,,0.00,WUHU216HW,2013-08-27 03:11:00,
2013-08-26 23:16:00,67.7,63.4,30.09,North,0,0.0,0.0,86,0.00,,,0.00,WUHU216HW,2013-08-27 03:16:00,
2013-08-26 23:21:00,67.7,63.6,30.09,North,0,0.0,0.0,87,0.00,,,0.00,WUHU216HW,2013-08-27 03:21:00,
2013-08-26 23:26:00,67.5,63.5,30.09,North,0,0.0,0.0,87,0.00,,,0.00,WUHU216HW,2013-08-27 03:26:00,
2013-08-26 23:31:00,67.5,63.5,30.09,North,0,0.0,0.0,87,0.00,,,0.00,WUHU216HW,2013-08-27 03:31:00,
2013-08-26 23:36:00,67.5,63.5,30.09,North,0,0.0,0.0,87,0.00,,,0.00,WUHU216HW,2013-08-27 03:36:00,
2013-08-26 23:41:00,67.3,63.3,30.09,North,0,0.0,0.0,87,0.00,,,0.00,WUHU216HW,2013-08-27 03:41:00,
2013-08-26 23:46:00,67.0,62.9,30.09,North,0,0.0,0.0,87,0.00,,,0.00,WUHU216HW,2013-08-27 03:46:00,
2013-08-26 23:51:00,67.0,62.9,30.09,North,0,0.0,0.0,87,0.00,,,0.00,WUHU216HW,2013-08-27 03:51:00,
2013-08-26 23:56:00,67.0,62.9,30.09,North,0,0.0,0.0,87,0.00,,,0.00,WUHU216HW,2013-08-27 03:56:00,